Opa-locka Executive Airport Miami US
ICAO: KOPF
IATA: OPF
Category: Medium
Scheduled Services: No

Elevation: 8 ft
TransAlt. 18000 ft.

Airport Communications:
MIAMI APP/DEP:128.6
ATIS:125.9
CLNC DEL:119.2
CTAF:120.7
GND:121.9
CG MIAMI AIR:123.1
TWR:120.7

KOPF Zoom In..

If you have problems with the map follow the link
https://www.worldairports.se/pages/airport.php?
ICAO=KOPF

Runways:

(A) RW 09L length 8002 ft width 150 ft
ILS 110.50 / hdg 89

(B) RW 09R length 4309 ft width 100 ft
---- / hdg 89

(C) RW 12 length 6800 ft width 150 ft
ILS 111.55 / hdg 124

(D) RW 27L length 4309 ft width 100 ft
---- / hdg 269

(E) RW 27R length 8002 ft width 150 ft
ILS 111.35 / hdg 269

(F) RW 30 length 6800 ft width 150 ft
---- / hdg 304

Location; KOPF
Day. 24 / Time. 10.53 Zulu
* Altimeter: 30.19
* Temperature: 18° c. 64.4°f.
* Wind from: 000° Speed 00 kn.
Dewpoint: 14° c.
Visibility: 10 Statute Miles.
Clouds: Scattered 3700 ft.
Clouds: Broken 4800 ft.

KOPF 241053Z 00000KT 10SM SCT037 BKN048 18/14 A3019 RMK AO2 SLP223 T01830144


Wind - Calm.

 
 
jpsmedia.com for Web Design worldairports.se 2019   terms of use